Location: Sungai Apap
(2.6167°N, 113.3833°E)
Time: 07:20:19
(UTC+00:00)

FENGYUN 1C DEB - Pass Details

Date: 15 October 2024
Orbit: 684 x 1038 km, 98.8° (Epoch: 08 October)

Event Time Altitude Azimuth Distance (km) Brightness Sun altitude
Rises 12:44:40 0° 192° (SSW) 3,724 ? -38.1°
Reaches altitude 10° 12:47:44 10° 206° (SSW) 2,733 ? -38.8°
Maximum altitude 12:52:25 23° 256° (WSW) 1,875 ? -40.0°
Drops below altitude 10° 12:56:52 10° 307° (NW) 2,563 ? -41.1°
Sets 12:59:40 0° 321° (NW) 3,439 ? -41.8°
